Wind_Speed
13 15 17 18 19 21 23 25 27 27 28 30 33 34 34 35 35 36 36 36 36 36 36 36 36 35 35 35 34 34 34 34 33 32 30 29 27 25 25 24 23 22 21 21
16 18 20 21 21 22 22 24 27 29 31 32 35 36 36 36 37 38 37 37 37 37 36 36 35 35 34 34 33 32 31 31 30 29 27 25 24 23 22 20 19 19 18 17
19 21 22 23 21 24 25 26 30 32 34 35 36 37 37 37 39 39 39 38 38 37 37 36 35 34 34 34 33 32 30 29 28 27 25 22 21 20 18 17 16 15 14 14
23 24 25 20 26 29 30 30 33 35 37 37 38 39 39 40 43 43 42 41 40 39 38 38 36 35 34 33 32 31 29 27 26 25 23 21 19 17 15 14 13 12 11 10
26 26 27 28 32 32 31 34 38 38 39 40 41 42 42 43 44 44 44 44 43 41 40 39 37 36 34 33 32 30 29 26 24 23 22 20 17 15 13 13 12 12 11 9
29 29 30 34 35 34 35 40 42 43 45 46 47 48 47 46 46 46 45 45 44 42 41 39 38 36 35 33 31 30 28 26 23 22 20 18 16 14 13 12 11 10 9 8
35 35 36 40 39 39 41 44 45 47 48 49 50 51 51 50 49 48 47 45 44 43 41 39 37 36 34 33 31 29 27 25 23 21 19 17 15 14 13 12 11 10 8 8
35 37 39 42 43 44 45 48 50 51 52 53 53 53 53 52 51 50 48 46 44 43 41 39 37 36 34 32 31 29 27 25 23 21 19 17 16 15 14 12 11 10 8 7
37 39 42 43 45 47 49 52 54 55 57 57 58 58 57 55 54 51 49 46 44 43 41 39 37 35 33 31 30 29 27 25 23 21 19 18 16 15 14 12 11 10 9 8
39 42 44 47 49 51 53 56 57 59 60 61 61 61 60 58 56 53 50 47 45 43 40 39 37 35 33 31 29 29 28 26 24 22 21 19 17 16 15 14 13 12 10 9
41 44 47 50 53 55 57 58 60 61 62 63 64 63 61 60 58 55 53 49 46 44 41 40 37 34 33 31 30 29 28 27 25 23 22 20 19 17 16 15 13 12 11 10
46 49 52 54 56 59 61 62 64 65 65 65 64 64 63 62 59 57 54 51 49 46 43 42 40 37 35 33 31 30 28 27 26 25 23 21 20 19 17 16 15 13 13 12
51 54 56 59 61 63 65 66 67 67 67 65 65 65 64 62 60 58 55 53 52 49 48 44 42 39 37 33 32 31 29 28 27 26 25 23 21 20 19 18 17 15 14 14
54 57 60 62 64 66 67 68 67 66 66 65 64 63 62 60 58 57 55 53 53 52 49 46 42 39 37 34 33 32 30 29 28 26 26 25 23 21 20 19 18 17 16 16
58 61 63 65 67 68 68 68 66 64 62 60 59 58 57 55 54 52 50 50 49 49 47 46 43 41 38 35 32 31 31 29 28 27 26 26 24 23 22 21 19 18 17 17
62 64 66 67 68 67 66 63 62 60 57 55 54 53 51 49 48 46 44 42 42 41 42 43 42 41 40 38 36 33 31 31 29 28 26 26 25 24 23 22 21 20 19 19
65 67 69 69 68 65 61 59 57 54 52 50 48 47 46 45 43 41 38 36 35 34 35 38 39 38 40 39 37 35 32 31 30 29 27 26 25 24 23 23 22 21 21 20
67 68 68 67 64 61 57 54 50 48 46 45 45 44 43 41 39 37 35 32 31 30 30 33 35 35 37 39 37 35 32 31 30 29 27 25 24 24 24 23 23 23 22 22
67 66 64 62 58 54 51 49 46 45 44 44 42 41 40 39 38 36 33 29 28 27 27 30 33 34 35 38 37 35 33 31 31 29 28 26 25 24 23 22 22 21 21 21
65 62 59 55 51 49 47 45 44 44 43 43 42 40 39 39 38 35 31 27 26 25 24 27 31 33 35 36 37 37 35 33 32 31 28 26 25 24 23 22 21 20 19 18
61 57 53 50 47 44 43 43 44 43 42 42 42 41 40 38 37 34 30 26 24 24 23 25 29 32 34 36 37 38 36 33 32 30 27 25 24 22 21 20 19 18 17 16
56 52 49 46 43 41 40 41 42 42 42 41 41 41 41 39 36 33 29 26 23 23 23 25 27 30 33 36 37 37 35 33 32 29 26 24 22 20 19 18 17 16 16 15
51 48 45 43 40 40 39 40 40 40 41 41 43 42 41 39 36 33 28 25 22 21 22 25 28 30 33 34 35 36 35 34 33 30 26 23 22 20 19 18 17 16 15 14
47 43 42 40 38 38 38 37 38 39 41 42 43 43 41 37 33 30 26 22 20 19 20 25 29 30 32 34 34 35 35 34 33 31 28 25 22 20 19 18 17 15 14 14
43 41 39 37 36 36 36 36 38 40 41 42 43 43 40 36 32 26 21 18 17 16 18 24 28 30 31 32 33 33 34 34 35 33 29 26 22 20 19 17 16 15 15 15
41 39 37 36 36 36 36 38 40 41 41 41 41 41 37 33 28 23 17 14 12 13 18 24 27 29 30 31 31 32 32 32 33 31 28 25 23 20 19 17 16 16 16 15
39 37 35 33 32 33 35 38 39 40 40 41 40 38 33 28 23 17 11 6 7 13 19 24 26 27 29 30 30 31 30 31 30 29 27 25 22 21 19 18 18 18 17 17
Wind_Direction
303 300 297 297 297 294 293 296 297 300 298 299 299 303 306 308 309 309 308 308 307 307 306 305 302 300 296 294 294 294 294 296 297 299 301 304 303 303 303 298 291 284 278 266
308 304 304 305 302 298 297 297 297 297 297 300 304 306 308 309 308 307 308 309 308 307 307 306 304 301 299 296 295 295 296 296 297 299 302 305 305 306 309 303 292 287 280 265
312 308 308 310 304 300 301 302 298 298 302 304 304 305 306 306 304 305 307 307 307 307 306 306 305 302 298 296 295 295 295 296 296 299 302 304 305 307 308 305 298 288 277 268
312 310 310 306 296 299 304 304 300 302 306 306 305 305 306 304 304 306 307 306 305 305 304 304 303 303 299 295 293 293 294 295 294 296 299 300 302 305 304 302 299 295 290 279
312 310 308 298 297 303 308 304 303 306 306 304 303 303 302 302 302 303 303 303 303 302 301 301 301 301 299 295 292 291 291 291 291 293 296 296 296 296 299 301 297 293 290 283
311 308 307 300 304 311 310 305 307 307 305 304 303 301 301 300 299 298 298 298 298 297 297 296 296 297 296 294 291 289 288 288 287 288 291 291 290 289 290 293 293 291 287 277
315 312 308 306 311 312 308 305 303 301 301 300 299 298 298 297 297 295 294 294 293 293 292 291 291 292 292 291 288 286 283 282 281 282 282 283 281 280 284 287 287 285 284 278
310 308 303 307 309 307 303 301 300 300 299 298 296 295 295 295 294 293 291 290 290 289 288 286 285 285 286 287 285 282 278 276 275 273 273 273 272 273 276 279 280 279 277 274
309 305 304 305 304 302 301 300 300 299 298 297 295 294 293 293 292 291 289 288 285 285 283 281 281 279 279 280 280 277 272 271 270 267 265 265 266 267 268 269 271 272 270 268
306 304 305 304 303 302 302 301 300 299 298 296 295 293 292 291 289 287 285 284 282 280 278 277 276 275 274 273 275 272 268 265 264 261 259 260 261 261 261 261 261 262 264 261
303 304 304 303 304 303 302 300 299 298 296 295 294 292 291 289 287 284 280 279 277 275 271 270 270 268 269 269 268 267 263 260 258 257 254 254 254 255 254 253 253 253 254 254
306 306 305 305 304 303 302 301 300 299 297 296 295 294 292 291 288 286 281 276 272 269 267 265 263 260 261 264 262 261 259 257 254 253 250 249 249 248 248 248 250 252 251 250
308 308 307 307 306 305 304 303 302 301 300 299 298 297 296 294 291 288 284 278 273 268 265 262 261 258 256 256 257 254 256 254 251 248 247 246 246 244 244 245 247 248 248 247
309 309 309 309 308 307 306 305 304 303 302 301 301 300 299 297 295 291 288 282 274 269 265 260 256 253 252 252 251 248 251 251 248 245 243 242 241 241 242 242 244 246 247 248
313 313 312 311 310 309 308 307 306 306 306 305 305 304 304 302 299 296 291 284 276 271 265 258 253 249 247 246 247 244 243 245 244 242 240 238 238 238 239 240 242 244 245 247
316 314 313 312 311 310 310 309 310 310 310 309 308 308 307 305 302 299 294 287 278 271 263 256 251 245 240 241 242 241 239 238 238 239 237 236 236 236 237 239 241 242 244 247
316 315 314 314 313 313 313 313 314 314 314 313 313 312 311 309 306 302 296 287 279 269 260 252 247 242 235 235 236 236 237 233 233 234 234 233 233 234 236 238 240 242 244 247
317 316 315 315 315 315 315 316 317 317 317 317 316 315 315 314 311 308 301 288 279 268 257 247 241 237 232 230 230 231 230 227 227 229 229 228 229 232 236 240 243 244 245 246
317 316 316 316 317 317 318 319 319 319 319 319 318 317 317 316 314 310 307 295 283 270 254 242 235 232 228 228 227 228 225 220 220 224 226 226 227 230 235 242 246 248 248 246
317 317 317 318 318 318 319 319 319 320 320 319 319 318 317 317 315 311 306 297 283 267 250 237 230 226 223 223 224 223 219 216 216 220 224 224 227 230 235 240 243 246 249 247
319 319 320 319 320 320 320 320 320 321 321 321 320 318 317 316 314 310 304 295 281 265 248 235 227 222 219 219 220 218 214 214 213 215 220 222 224 228 231 234 238 244 250 253
321 321 321 321 321 322 322 322 323 323 324 323 322 320 319 316 312 308 301 293 280 263 246 230 221 218 215 213 214 214 211 209 208 211 214 218 221 222 225 231 236 244 251 257
323 323 323 323 323 324 325 326 326 326 326 325 323 322 320 319 315 309 302 290 278 260 241 223 214 213 211 208 208 208 207 206 205 206 208 213 216 220 226 231 236 242 249 257
325 325 325 325 324 325 327 328 329 328 327 326 325 324 321 319 316 310 300 289 272 254 234 215 208 207 204 202 202 203 205 204 203 204 207 210 214 222 227 230 234 238 247 256
327 328 328 328 327 329 331 332 332 331 331 330 329 327 325 322 319 311 298 284 266 245 220 205 200 199 196 195 197 198 199 200 202 204 208 211 215 222 227 231 234 240 250 260
330 330 331 331 331 332 333 334 334 335 334 333 332 331 331 327 323 316 301 281 257 226 203 194 192 192 190 189 191 193 193 195 196 200 206 211 216 222 226 229 234 243 253 261
332 332 332 332 333 334 335 335 337 338 338 337 338 338 339 336 332 327 314 279 218 193 184 181 183 184 184 186 187 188 191 194 196 200 205 211 216 220 226 233 240 247 255 261
Height
5844 5842 5840 5838 5836 5834 5831 5827 5823 5820 5816 5812 5806 5801 5797 5792 5787 5782 5778 5773 5768 5764 5760 5756 5752 5748 5745 5741 5738 5735 5732 5729 5725 5721 5717 5713 5709 5705 5701 5698 5695 5693 5693 5693
5841 5838 5835 5833 5830 5827 5824 5821 5816 5812 5808 5804 5799 5794 5790 5785 5780 5775 5770 5766 5761 5756 5752 5748 5744 5740 5737 5733 5730 5727 5724 5721 5718 5715 5711 5707 5703 5700 5696 5693 5691 5690 5689 5690
5837 5833 5830 5827 5824 5821 5818 5813 5808 5803 5800 5796 5791 5786 5783 5777 5772 5767 5763 5758 5753 5749 5744 5740 5736 5733 5729 5726 5723 5720 5717 5715 5712 5709 5706 5702 5699 5696 5693 5691 5689 5687 5687 5687
5831 5829 5825 5824 5817 5813 5811 5806 5800 5796 5792 5787 5782 5778 5774 5768 5762 5758 5753 5749 5744 5740 5736 5732 5728 5725 5721 5718 5715 5713 5710 5708 5706 5703 5701 5698 5695 5693 5691 5689 5687 5686 5685 5685
5825 5822 5819 5815 5809 5806 5804 5797 5791 5788 5783 5778 5773 5768 5764 5758 5753 5748 5743 5739 5735 5731 5727 5723 5720 5716 5713 5710 5708 5705 5703 5701 5699 5698 5696 5694 5691 5689 5688 5687 5685 5685 5684 5684
5819 5815 5810 5805 5801 5798 5795 5789 5782 5777 5771 5766 5761 5756 5753 5748 5742 5737 5733 5729 5724 5721 5717 5714 5711 5708 5705 5702 5700 5698 5696 5695 5693 5692 5690 5689 5688 5686 5685 5684 5683 5682 5682 5682
5809 5805 5801 5794 5792 5790 5786 5780 5773 5767 5761 5755 5749 5744 5739 5734 5729 5725 5721 5717 5713 5710 5707 5704 5701 5699 5696 5694 5692 5690 5689 5688 5687 5686 5685 5684 5683 5683 5682 5682 5681 5680 5680 5680
5803 5798 5794 5788 5784 5780 5774 5766 5760 5754 5748 5742 5736 5730 5724 5719 5715 5711 5707 5703 5700 5697 5695 5693 5690 5688 5686 5685 5683 5682 5682 5681 5680 5680 5679 5679 5679 5679 5679 5679 5678 5678 5678 5679
5796 5791 5783 5778 5773 5767 5761 5754 5747 5740 5733 5726 5720 5714 5708 5704 5699 5695 5691 5689 5686 5684 5682 5680 5678 5676 5675 5674 5674 5674 5674 5673 5673 5673 5673 5674 5674 5675 5675 5675 5675 5676 5676 5677
5786 5779 5773 5767 5761 5754 5747 5739 5731 5723 5716 5708 5702 5696 5690 5685 5681 5678 5675 5673 5671 5670 5668 5667 5665 5663 5663 5663 5664 5664 5665 5665 5666 5666 5667 5668 5669 5670 5670 5671 5672 5673 5674 5674
5776 5770 5763 5755 5747 5740 5732 5724 5715 5707 5698 5690 5682 5676 5671 5666 5662 5659 5657 5655 5655 5654 5653 5652 5652 5650 5650 5652 5654 5655 5656 5657 5658 5659 5660 5661 5663 5664 5666 5667 5668 5669 5670 5672
5764 5757 5750 5743 5734 5725 5716 5707 5698 5689 5680 5671 5662 5655 5649 5644 5641 5638 5636 5635 5635 5636 5636 5637 5638 5638 5639 5641 5642 5644 5646 5648 5649 5651 5653 5654 5656 5659 5660 5662 5663 5665 5666 5668
5752 5743 5735 5726 5717 5707 5697 5688 5678 5668 5658 5649 5642 5634 5627 5622 5619 5616 5614 5614 5614 5616 5618 5621 5622 5624 5626 5627 5630 5633 5636 5638 5640 5643 5645 5647 5649 5652 5654 5656 5658 5660 5662 5664
5738 5730 5721 5711 5700 5690 5678 5668 5658 5648 5639 5630 5621 5614 5607 5601 5597 5594 5592 5591 5592 5595 5598 5603 5607 5610 5613 5613 5616 5620 5624 5627 5630 5634 5637 5640 5642 5645 5648 5650 5652 5655 5657 5659
5723 5713 5703 5693 5682 5671 5660 5649 5639 5630 5621 5613 5604 5596 5589 5583 5578 5575 5572 5571 5571 5574 5578 5584 5589 5594 5598 5600 5604 5607 5612 5617 5621 5625 5628 5631 5635 5638 5641 5644 5646 5649 5651 5653
5708 5697 5686 5675 5664 5653 5642 5631 5621 5613 5604 5596 5589 5581 5574 5567 5562 5557 5554 5552 5552 5555 5559 5565 5572 5578 5583 5588 5592 5596 5601 5606 5611 5615 5619 5623 5627 5631 5634 5637 5640 5643 5645 5648
5691 5680 5668 5657 5646 5635 5625 5616 5606 5597 5590 5582 5575 5567 5560 5553 5547 5543 5539 5537 5537 5539 5542 5548 5555 5561 5567 5573 5579 5584 5590 5596 5602 5606 5611 5615 5619 5623 5627 5630 5633 5636 5639 5641
5674 5662 5650 5639 5628 5619 5611 5603 5594 5586 5578 5570 5563 5556 5549 5541 5535 5531 5527 5524 5524 5525 5528 5533 5540 5547 5553 5560 5566 5573 5579 5585 5592 5598 5603 5608 5612 5616 5620 5623 5626 5629 5632 5635
5659 5647 5636 5625 5615 5606 5598 5590 5583 5575 5568 5560 5553 5545 5539 5532 5526 5521 5517 5514 5513 5514 5516 5520 5527 5534 5541 5547 5554 5562 5569 5576 5583 5590 5596 5601 5605 5609 5613 5616 5619 5622 5625 5628
5645 5634 5623 5613 5604 5596 5588 5580 5573 5565 5558 5550 5543 5536 5529 5523 5517 5511 5507 5504 5503 5504 5506 5510 5516 5523 5530 5537 5545 5553 5561 5568 5575 5582 5588 5593 5598 5602 5606 5610 5613 5615 5618 5621
5631 5621 5611 5602 5594 5587 5579 5571 5563 5556 5548 5541 5533 5526 5520 5514 5508 5502 5498 5495 5495 5494 5497 5500 5506 5513 5521 5528 5536 5544 5552 5560 5567 5574 5581 5587 5592 5596 5600 5604 5607 5610 5612 5614
5619 5610 5601 5593 5585 5578 5571 5563 5555 5547 5540 5532 5525 5517 5510 5504 5498 5493 5488 5486 5485 5485 5488 5492 5498 5505 5512 5520 5528 5537 5546 5554 5561 5568 5575 5581 5586 5591 5595 5599 5602 5605 5607 5609
5608 5600 5591 5584 5576 5569 5563 5555 5547 5539 5532 5524 5516 5508 5500 5493 5487 5482 5479 5477 5476 5477 5479 5484 5490 5497 5505 5513 5522 5531 5539 5548 5556 5563 5570 5576 5581 5586 5590 5594 5597 5599 5602 5604
5599 5591 5583 5576 5569 5562 5555 5548 5541 5533 5524 5516 5507 5499 5490 5484 5478 5473 5469 5468 5467 5469 5472 5477 5484 5491 5499 5508 5517 5526 5534 5543 5551 5559 5565 5572 5577 5581 5585 5589 5592 5595 5597 5599
5591 5583 5576 5569 5562 5555 5548 5541 5534 5526 5518 5509 5500 5491 5482 5475 5469 5464 5461 5460 5460 5462 5466 5471 5479 5487 5495 5504 5513 5521 5530 5538 5546 5554 5561 5567 5572 5577 5581 5584 5587 5590 5592 5594
5584 5576 5569 5562 5555 5549 5542 5535 5528 5520 5511 5502 5493 5484 5475 5468 5462 5457 5454 5454 5454 5457 5462 5468 5476 5484 5493 5501 5510 5519 5527 5535 5543 5551 5557 5563 5568 5572 5576 5580 5583 5585 5587 5589
5578 5571 5565 5558 5552 5545 5539 5531 5523 5515 5506 5496 5487 5479 5470 5463 5457 5453 5451 5450 5451 5455 5460 5467 5475 5483 5491 5500 5509 5517 5525 5533 5540 5547 5554 5559 5564 5568 5572 5575 5578 5580 5582 5583